Погода в Романовке

Россия / Санкт-Петербург и Ленинградская область     59°36′53″N   30°12′16″E
темп.,
°C
ветер,
м/с
пор.,
м/с
влажн.,
%
обл.,
%
осадки,
мм/ч
давл.,
гПа
погр.,
м
3 августа, вт
вт300:00+15зсз4899100 5.3 992420
03:00+14з81496100 9.4 995971
06:00+12зюз5139757 1.7 997599
09:00+16юз6118431 1.7 999827
12:00+19юз795843 0.1 10001653
15:00+19зюз696763 0.6 10021513
18:00+16з59873 1.8 10041012
21:00+13з49865 1.9 1006510
4 августа, ср
ср400:00+11зюз39945 0.0 1008237
03:00+9зюз38925 0.0 1010148
06:00+10зюз38925 0.0 1011175
09:00+16з35602 0.0 1013753
12:00+19з4545100 0.1 10142188
15:00+19зсз244088 0.1 10142151
18:00+19с134610 0.0 10151114
21:00+13всв01715 0.0 101610
5 августа, чт
чт500:00+10юв118171 0.0 101710
03:00+10ю11845 0.0 101811
06:00+10ююв11813 0.0 101810
09:00+17юв12555 0.0 1018405
12:00+21вюв21385 0.0 10171972
15:00+21вюв1139100 0.0 10171855
18:00+20всв2447100 0.0 1016293
21:00+15св3105828 0.0 1016271
6 августа, пт
пт600:00+13св21067100 0.0 1016261
03:00+13в2472100 0.0 1016126
06:00+12св11835 0.0 101619
09:00+17в376226 0.0 1016701
12:00+21в594382 0.0 10152151
15:00+19всв4949100 0.0 10141631
18:00+20всв41048100 0.0 10131671
21:00+16всв31162100 0.0 1013432
7 августа, сб
сб700:00+15всв51466100 0.0 1012848
03:00+15всв51370100 0.0 1011834
06:00+12всв51489100 1.2 1010714
09:00+12всв61598100 15.1 1010679
12:00+12всв61297100 5.6 1010714
15:00+13в51197100 5.7 1009650
18:00+14в41098100 0.1 1009577
21:00+14в4999100 0.6 1009509